Regional Weather Roundup
Issued by NWS

Home | Current Version | Previous Version | Text Only | Print | Product List | Glossary On
Versions: 1 2 3 4 5 6 7 8 9 10 11 12 13 14 15 16 17 18 19 20 21 22 23 24 25 26 27 28 29 30 31 32 33 34 35 36 37 38 39 40 41 42 43 44 45 46 47 48 49 50
322
ASUS44 KLIX 011207
RWRLA
LOUISIANA WEATHER ROUNDUP
NATIONAL WEATHER SERVICE NEW ORLEANS LA
700 AM CDT WED APR 01 2015

NOTE: "FAIR" INDICATES FEW OR NO CLOUDS BELOW 12,000 FEET WITH NO
      SIGNIFICANT WEATHER AND/OR OBSTRUCTIONS TO VISIBILITY.
      SKY/WX - SKY CONDITION AND SIGNIFICANT WEATHER.
      TMP - AIR TEMPERATURE.    DP   - DEWPOINT TEMPERATURE.
      RH  - RELATIVE HUMIDITY.  PRES - PRESSURE.
      HX  - HEAT INDEX.         WCI  - WIND CHILL INDEX.

*  THESE STATIONS ARE NOT NWS OR FAA STATIONS AND ARE NOT UNDER
   NWS QUALITY CONTROL.

LAZ040-048-061>063-065-066-069-011300-
SOUTHEAST LOUISIANA

CITY           SKY/WX    TMP DP  RH WIND       PRES   REMARKS
N.O. AUDUBON   NOT AVBL
N.O. INTL ARPT MOCLDY    65  62  90 S5        30.04R
6HR MIN TEMP:  64; 6HR MAX TEMP:  67;

N.O. LAKEFRONT MOCLDY    67  62  84 S7        30.05R
6HR MIN TEMP:  66; 6HR MAX TEMP:  70;

SLIDELL        CLOUDY    57  56  96 CALM      30.05R
6HR MIN TEMP:  56; 6HR MAX TEMP:  67;

BATON ROUGE    MOCLDY    59  59 100 NE3       30.03R FOG
6HR MIN TEMP:  58; 6HR MAX TEMP:  66;

BOOTHVILLE     PTCLDY    67  65  93 CALM      30.07R
6HR MIN TEMP:  64; 6HR MAX TEMP:  73;

BELLE CHASSE   FOG       60  59  96 CALM      30.04S VSB 1
6HR MIN TEMP:  57; 6HR MAX TEMP:  61;

BOGALUSA*        N/A     59  57  91 CALM      30.07R FOG
6HR MIN TEMP:  56; 6HR MAX TEMP:  66;

GALLIANO*      PTSUNNY   56  55  99 CALM      30.05R FOG
6HR MIN TEMP:  55; 6HR MAX TEMP:  58;

NEW ROADS*     FOG       63  62  97 CALM      30.03S VSB<1/4
6HR MIN TEMP:  62; 6HR MAX TEMP:  64;

GONZALES*      FOG       62  62 100 CALM      30.04R VSB 3/4
6HR MIN TEMP:  61; 6HR MAX TEMP:  64;

HAMMOND*       FOG       59  57  94 CALM      30.06R VSB 3/4
HOUMA*         FOG       59  59 100 CALM      30.04S VSB 1
PORT FOURCHON* PTSUNNY   70  68  94 CALM      30.08R

$$

LAZ041-044-053-054-011300-
SOUTHWEST LOUISIANA

CITY           SKY/WX    TMP DP  RH WIND       PRES   REMARKS
LAKE CHARLES   MOCLDY    62  61  96 CALM      30.00S FOG
6HR MIN TEMP:  61; 6HR MAX TEMP:  69;

LAFAYETTE      FOG       62  61  96 CALM      30.03R VSB 1/4
6HR MIN TEMP:  61; 6HR MAX TEMP:  66;

PATTERSON      MOCLDY    61  59  94 CALM      30.05R
6HR MIN TEMP:  61; 6HR MAX TEMP:  63;

SALT POINT       N/A     65  64  97 SE3       30.02R
6HR MIN TEMP:  64; 6HR MAX TEMP:  67;

NEW IBERIA     FOG       63  62  97 E3        30.04R VSB 1/4
6HR MIN TEMP:  60; 6HR MAX TEMP:  65;

CHENAULT AIRPK FOG       63  63 100 CALM      30.02R VSB 1/4

$$

LAZ027-028-011300-
CENTRAL LOUISIANA

CITY           SKY/WX    TMP DP  RH WIND       PRES   REMARKS
FORT POLK      CLOUDY    67  65  95 S6        30.00S FOG
6HR MIN TEMP:  65; 6HR MAX TEMP:  67;

ALEXANDRIA INT MOCLDY    65  63  93 CALM      30.00R FOG
6HR MIN TEMP:  64; 6HR MAX TEMP:  67;

ALEXANDRIA     CLOUDY    65  63  93 CALM      30.02R
6HR MIN TEMP:  62; 6HR MAX TEMP:  67;


$$

LAZ001-002-011300-
NORTHWEST LOUISIANA

CITY           SKY/WX    TMP DP  RH WIND       PRES   REMARKS
SHREVEPORT     MOCLDY    62  60  93 S6        29.97F FOG
6HR MIN TEMP:  62; 6HR MAX TEMP:  67;

BARKSDALE AFB  MOCLDY    66  64  94 S5        29.98F
DTN SHREVEPORT MOCLDY    66  62  87 S5        29.98F
6HR MIN TEMP:  64; 6HR MAX TEMP:  67;


$$

LAZ014-016-011300-
NORTHEAST LOUISIANA

CITY           SKY/WX    TMP DP  RH WIND       PRES   REMARKS
MONROE         MOCLDY    66  64  93 W5        30.01R
6HR MIN TEMP:  62; 6HR MAX TEMP:  66;

TALLULAH       CLOUDY    66  62  87 SW5       30.03R
6HR MIN TEMP:  60; 6HR MAX TEMP:  69;


$$




USA.gov is the U.S. government's official web portal to all federal, state and local government web resources and services.